TimeEDT,TemperatureF,Dew PointF,Humidity,Sea Level PressureIn,VisibilityMPH,Wind Direction,Wind SpeedMPH,Gust SpeedMPH,PrecipitationIn,Events,Conditions,WindDirDegrees,DateUTC
12:53 AM,55.9,43.0,62,29.89,10.0,NW,8.1,-,N/A,,Mostly Cloudy,320,2013-09-22 04:53:00
1:53 AM,55.0,42.1,62,29.91,10.0,NW,10.4,-,N/A,,Mostly Cloudy,320,2013-09-22 05:53:00
2:53 AM,54.0,39.9,59,29.91,10.0,NW,10.4,-,N/A,,Mostly Cloudy,310,2013-09-22 06:53:00
3:53 AM,53.1,39.9,61,29.92,10.0,WNW,9.2,-,N/A,,Mostly Cloudy,300,2013-09-22 07:53:00
4:53 AM,53.1,39.0,59,29.93,10.0,NW,11.5,-,N/A,,Mostly Cloudy,320,2013-09-22 08:53:00
5:53 AM,52.0,37.0,57,29.94,10.0,NNW,13.8,21.9,N/A,,Mostly Cloudy,330,2013-09-22 09:53:00
6:53 AM,51.1,37.9,61,29.96,10.0,NW,4.6,-,N/A,,Mostly Cloudy,320,2013-09-22 10:53:00
7:53 AM,51.1,39.9,66,29.98,10.0,NW,6.9,-,N/A,,Mostly Cloudy,320,2013-09-22 11:53:00
8:53 AM,52.0,39.0,61,30.00,10.0,NW,10.4,-,N/A,,Mostly Cloudy,320,2013-09-22 12:53:00
9:53 AM,52.0,37.9,59,30.01,10.0,NNW,10.4,-,N/A,,Mostly Cloudy,330,2013-09-22 13:53:00
10:53 AM,55.0,39.0,55,30.03,10.0,NNW,12.7,-,N/A,,Mostly Cloudy,340,2013-09-22 14:53:00
11:53 AM,55.0,39.9,57,30.03,9.0,NW,10.4,-,N/A,,Mostly Cloudy,320,2013-09-22 15:53:00
12:53 PM,57.9,41.0,53,30.03,10.0,NNW,9.2,-,N/A,,Scattered Clouds,330,2013-09-22 16:53:00
1:53 PM,59.0,39.9,49,30.03,10.0,North,8.1,-,N/A,,Mostly Cloudy,360,2013-09-22 17:53:00
2:53 PM,60.1,41.0,49,30.01,10.0,NW,10.4,-,N/A,,Scattered Clouds,310,2013-09-22 18:53:00
3:53 PM,61.0,42.1,50,30.02,10.0,North,4.6,-,N/A,,Scattered Clouds,360,2013-09-22 19:53:00
4:53 PM,61.0,42.1,50,30.01,10.0,West,8.1,-,N/A,,Mostly Cloudy,280,2013-09-22 20:53:00
5:53 PM,60.1,42.1,51,30.02,10.0,WNW,9.2,-,N/A,,Scattered Clouds,300,2013-09-22 21:53:00
6:53 PM,55.9,42.1,60,30.04,10.0,North,10.4,-,N/A,,Mostly Cloudy,10,2013-09-22 22:53:00
7:53 PM,54.0,39.9,59,30.06,10.0,North,6.9,-,N/A,,Mostly Cloudy,350,2013-09-22 23:53:00
8:53 PM,54.0,41.0,62,30.07,10.0,North,5.8,-,N/A,,Mostly Cloudy,10,2013-09-23 00:53:00
9:53 PM,53.1,41.0,64,30.09,10.0,NNE,6.9,-,N/A,,Mostly Cloudy,20,2013-09-23 01:53:00
10:53 PM,53.1,41.0,64,30.09,10.0,NNE,8.1,-,N/A,,Mostly Cloudy,30,2013-09-23 02:53:00
11:53 PM,52.0,41.0,66,30.10,10.0,NE,5.8,-,N/A,,Mostly Cloudy,40,2013-09-23 03:53:00